This is the latest recevied weather packets stored in our database for station/object OK1FET-15. If no packets are shown the sender has not sent any weather packets the latest 10 day(s).
| Time | Temp. | Humidity | Pressure | Rain* | Wind** | Luminosity | Snow |
|---|---|---|---|---|---|---|---|
| 1787483774 | 30° C | 37% | 1022.5 hPa | - | - | - | - |
| 1787483465 | 30° C | 40% | 1022.6 hPa | - | - | - | - |
| 1787483156 | 30.56° C | 50% | 1022.7 hPa | - | - | - | - |
| 1787482847 | 29.44° C | 59% | 1022.7 hPa | - | - | - | - |
| 1787482539 | 28.33° C | 57% | 1022.7 hPa | - | - | - | - |
| 1787482230 | 27.22° C | 55% | 1022.8 hPa | - | - | - | - |
| 1787481922 | 28.33° C | 40% | 1022.8 hPa | - | - | - | - |
| 1787481613 | 27.78° C | 42% | 1022.8 hPa | - | - | - | - |
| 1787481305 | 27.78° C | 40% | 1022.8 hPa | - | - | - | - |
| 1787480996 | 27.78° C | 48% | 1022.8 hPa | - | - | - | - |
| 1787480688 | 28.33° C | 56% | 1022.8 hPa | - | - | - | - |
| 1787480379 | 27.78° C | 55% | 1022.8 hPa | - | - | - | - |
| 1787480071 | 26.67° C | 56% | 1022.9 hPa | - | - | - | - |
| 1787479763 | 26.11° C | 69% | 1022.9 hPa | - | - | - | - |
| 1787479455 | 24.44° C | 60% | 1023.1 hPa | - | - | - | - |
| 1787479146 | 23.33° C | 61% | 1023.2 hPa | - | - | - | - |
| 1787478838 | 24.44° C | 64% | 1023.1 hPa | - | - | - | - |
| 1787478530 | 25.56° C | 67% | 1023.1 hPa | - | - | - | - |
| 1787478222 | 26.11° C | 74% | 1023.2 hPa | - | - | - | - |
| 1787477914 | 25.56° C | 78% | 1023.2 hPa | - | - | - | - |
| 1787477605 | 25.56° C | 64% | 1023.2 hPa | - | - | - | - |
| 1787477297 | 26.11° C | 66% | 1023.3 hPa | - | - | - | - |
| 1787476989 | 25° C | 64% | 1023.2 hPa | - | - | - | - |
| 1787476681 | 25° C | 77% | 1023.2 hPa | - | - | - | - |
| 1787476372 | 26.11° C | 79% | 1023.1 hPa | - | - | - | - |
* Rain since midnight (hover to see other rain measurements)
** Current wind speed in m/s (hover to see current wind gust speed)